[[{"header":{"parameterUnit":"m.s-1","parameterCategory":1,"la1":30.2991,"la2":30.254,"lo1":-89.0895,"lo2":-89.0444,"dy":0.0017,"dx":0.0017,"nx":28,"ny":28,"refTime":"2025-08-20T09:00:00:Z","depth":0,"parameterNumber":2,"parameterNumberName":"U-component_of_WINDS"},"data":[0,0,0,0,0,0,0,0,0,0,0,0,0,0,0,0,0,0,0,0,0,0,0,0,0,0,0,0,0,0,0,0,0,0,0,0,0,0,0,0,0,0,0,0,0,0,0,0,0,0,0,0,0,0,0,0,0,0,4.9961,4.9962,0,5.0099,5.01,5.0102,5.0034,5.003,5.0027,5.0023,5.0164,5.0171,5.0178,0,0,0,0,0,0,0,0,0,0,0,0,0,4.9636,4.9642,4.9961,4.9962,4.9964,5.0099,5.01,5.0102,5.0034,5.003,5.0026,5.0022,5.0162,5.017,5.0178,0,0,0,0,0,0,0,0,0,0,0,0,0,4.9776,4.9644,4.996,4.9946,4.9946,5.0098,5.01,5.0103,5.0035,5.003,5.0024,5.0019,5.0159,5.0169,5.018,5.0353,0,0,5.0212,5.0217,0,0,0,0,0,0,0,0,4.9768,4.9788,4.9947,4.9948,4.9948,5.0044,5.0037,5.0187,5.0037,5.0002,5.0023,5.0017,5.0128,5.0141,5.0179,5.0359,5.0365,5.0213,5.0219,5.0224,5.0227,0,0,0,0,0,0,0,4.9758,4.9781,5.0015,4.9949,4.995,4.9932,4.9946,5.0065,5.0093,5.0004,5.0,5.0017,5.0127,5.0169,5.0181,5.0367,5.0213,5.0222,5.0229,5.0233,5.0694,5.0699,0,0,0,0,0,0,4.9749,4.9774,5.0011,5.0019,4.9843,4.9943,4.9958,5.0018,5.0092,5.0098,5.0021,5.0013,5.0153,5.0169,5.0186,5.0391,5.0224,5.0234,5.024,5.0688,5.0695,5.0701,0,0,0,0,0,0,4.9743,4.9771,5.0005,4.9895,4.9924,4.9954,5.0022,5.0024,5.0065,5.0105,5.0109,5.0058,5.0149,5.0171,5.0311,5.0395,5.0239,5.0248,5.0681,5.069,5.0698,5.0804,0,0,0,0,0,0,4.9734,4.9769,4.9836,4.9897,4.993,5.0129,5.0027,5.003,5.0083,5.0074,5.0141,5.0146,5.0147,5.0296,5.0322,5.0407,5.0257,5.0674,5.0685,5.0695,5.0793,5.0815,5.0834,0,0,0,0,0,4.9722,4.9861,4.984,4.9869,5.0014,5.0134,5.0152,5.015,5.0091,5.0157,5.0182,5.0144,5.0382,5.0311,5.0339,5.0429,5.0668,5.0682,5.0695,5.0784,5.0811,5.0834,0,0,0,0,0,0,4.9809,4.9869,4.9846,5.0009,5.0067,5.0122,5.0206,5.018,5.0256,5.0244,5.0238,5.0253,5.0398,5.0428,5.0347,5.0599,5.0516,5.0535,5.0574,5.06,5.062,5.0609,5.0265,0,0,0,0,0,4.9847,4.9939,4.9987,5.0126,5.0156,5.0176,5.0229,5.0222,5.0282,5.0306,5.0341,5.04,5.0488,5.0546,5.0629,5.0798,5.081,5.0873,5.0894,5.0911,5.0927,5.1015,5.1043,5.0745,5.0745,5.0744,0,0,4.9926,4.997,5.0029,5.0144,5.0188,5.0283,5.0197,5.0302,5.0372,5.0322,5.0455,5.0484,5.0549,5.0703,5.0773,5.0732,5.1012,5.0928,5.0941,5.0948,5.1032,5.106,5.1085,5.0754,5.0752,5.0751,0,0,5.0118,5.0162,5.0281,5.0327,5.0395,5.0407,5.0436,5.0496,5.0512,5.0647,5.061,5.0693,5.0845,5.0892,5.0936,5.1145,5.1111,5.1172,5.1279,5.1365,5.1389,5.1409,5.1481,5.1507,5.1189,5.1189,5.1189,0,5.0208,5.035,5.0346,5.0453,5.0504,5.0462,5.0581,5.0626,5.0718,5.0753,5.0707,5.0895,5.0936,5.1099,5.115,5.1188,5.1219,5.1164,5.1386,5.1407,5.1426,5.1494,5.1521,5.1196,5.1195,5.1194,5.1194,0,5.0456,5.0555,5.0643,5.0732,5.0793,5.0906,5.0917,5.0979,5.0967,5.0984,5.112,5.1168,5.1258,5.1297,5.1287,5.1459,5.1431,5.1386,5.1302,5.1461,5.1525,5.1551,5.1205,5.1203,5.1201,5.1199,0,0,5.0706,5.079,5.0822,5.0861,5.0932,5.1008,5.1119,5.1207,5.1259,5.1324,5.1414,5.1543,5.1501,5.1551,5.1546,5.1622,5.178,5.1566,5.1568,5.1602,5.1969,5.2001,5.2031,5.176,5.1765,5.1769,5.1963,0,5.0901,5.1094,5.1093,5.1271,5.1361,5.1322,5.1418,5.1471,5.149,5.1569,5.1589,5.1679,5.1618,5.1648,5.1721,5.1745,5.1853,5.1732,5.1842,5.1846,5.1824,5.2065,5.21,5.2281,5.1988,5.1992,5.1995,0,5.1155,5.1227,5.1414,5.1469,5.1507,5.1593,5.1673,5.1749,5.1808,5.1816,5.1872,5.1854,5.1964,5.1879,5.2029,5.1946,5.1992,5.201,5.2017,5.2025,5.1928,5.2077,5.2339,5.2365,5.2035,5.2032,5.2029,0,5.1315,5.1459,5.1589,5.1623,5.1692,5.1753,5.1785,5.1839,5.1891,5.1961,5.1995,5.2077,5.2121,5.2185,5.2189,5.2126,5.234,5.2255,5.2348,5.2348,5.2393,5.2389,5.2662,5.2427,5.2426,5.2426,5.2425,0,5.1532,5.1647,5.1661,5.1741,5.1868,5.1865,5.199,5.2016,5.2064,5.2147,5.2119,5.2197,5.2199,5.2279,5.2283,5.2405,5.2427,5.2435,5.2434,5.2436,5.2434,5.2463,5.245,5.2433,5.2431,5.243,5.2429,0,5.1732,5.1746,5.1884,5.1938,5.1954,5.2045,5.2091,5.2166,5.2181,5.2286,5.2311,5.2335,5.2427,5.2438,5.2546,5.2548,5.2695,5.2682,5.2675,5.2672,5.2762,5.2753,5.3061,5.31,5.2842,5.2844,5.2847,0,5.1868,5.1956,5.2018,5.2072,5.2106,5.2193,5.2246,5.2246,5.2303,5.2375,5.2441,5.253,5.2601,5.2749,5.2776,5.2858,5.2845,5.2947,5.2857,5.2855,5.2843,5.2836,5.2844,5.2964,5.2967,5.2969,5.2971,0,5.2107,5.211,5.2187,5.2268,5.2332,5.2395,5.2454,5.2499,5.2506,5.2571,5.2664,5.2719,5.2828,5.2916,5.2996,5.3027,5.3,5.3,5.3025,5.3026,5.3017,5.302,5.2719,5.2992,5.299,5.2989,5.2987,5.2987,5.2278,5.2352,5.2408,5.2495,5.2539,5.2594,5.2667,5.2691,5.2769,5.2857,5.2853,5.2955,5.3009,5.3114,5.3151,5.323,5.3196,5.3233,5.3242,5.325,5.3258,5.3007,5.3245,5.3244,5.3244,5.3243,5.3243,0,5.2513,5.2546,5.2626,5.2709,5.2777,5.2747,5.281,5.2868,5.2959,5.3012,5.3082,5.3188,5.3273,5.3306,5.3388,5.3445,5.3434,5.3466,5.3461,5.3468,5.3285,5.3254,5.3473,5.3473,5.3473,5.3473,5.3473,5.3473,5.2643,5.2767,5.2776,5.292,5.2953,5.3052,5.3091,5.3141,5.3183,5.3303,5.3373,5.3394,5.3439,5.3524,5.3599,5.3607,5.3637,5.3674,5.3676,5.3504,5.3481,5.3459,5.3429,5.3681,5.3682,5.3851,5.3853,5.3854]},{"header":{"parameterUnit":"m.s-1","parameterCategory":1,"la1":30.2991,"la2":30.254,"lo1":-89.0895,"lo2":-89.0444,"dy":0.0017,"dx":0.0017,"nx":28,"ny":28,"refTime":"2025-08-20T09:00:00:Z","depth":0,"parameterNumber":3,"parameterNumberName":"V-component_of_WINDS"},"data":[0,0,0,0,0,0,0,0,0,0,0,0,0,0,0,0,0,0,0,0,0,0,0,0,0,0,0,0,0,0,0,0,0,0,0,0,0,0,0,0,0,0,0,0,0,0,0,0,0,0,0,0,0,0,0,0,0,0,1.4342,1.4342,0,1.4357,1.4357,1.4357,1.4331,1.433,1.4329,1.4328,1.4344,1.4346,1.4347,0,0,0,0,0,0,0,0,0,0,0,0,0,1.4289,1.429,1.4342,1.4342,1.4342,1.4357,1.4357,1.4357,1.4331,1.433,1.4329,1.4328,1.4344,1.4345,1.4347,0,0,0,0,0,0,0,0,0,0,0,0,0,1.4309,1.429,1.4342,1.433,1.433,1.4357,1.4357,1.4357,1.4331,1.433,1.4328,1.4327,1.4343,1.4345,1.4347,1.4386,0,0,1.4353,1.4354,0,0,0,0,0,0,0,0,1.4308,1.4311,1.4332,1.4331,1.433,1.434,1.4344,1.4367,1.4331,1.4331,1.4328,1.4326,1.4344,1.4346,1.4352,1.4387,1.4388,1.4353,1.4354,1.4355,1.4356,0,0,0,0,0,0,0,1.4306,1.431,1.4348,1.4332,1.4331,1.4325,1.4326,1.4349,1.4345,1.433,1.4329,1.4331,1.4344,1.435,1.4352,1.4388,1.4353,1.4355,1.4356,1.4357,1.4454,1.4455,0,0,0,0,0,0,1.4306,1.4309,1.4347,1.4348,1.4315,1.4327,1.4328,1.4339,1.4344,1.4344,1.4332,1.4329,1.4347,1.435,1.4353,1.4397,1.4355,1.4357,1.4358,1.4452,1.4454,1.4456,0,0,0,0,0,0,1.4305,1.431,1.4347,1.4328,1.4332,1.4329,1.4341,1.434,1.4346,1.4346,1.4345,1.4339,1.4346,1.435,1.4378,1.4398,1.4358,1.436,1.4451,1.4453,1.4455,1.4488,0,0,0,0,0,0,1.4304,1.431,1.4325,1.4328,1.4333,1.4372,1.4342,1.4341,1.4349,1.4346,1.4352,1.4352,1.4346,1.4375,1.4379,1.44,1.4361,1.4449,1.4452,1.4454,1.4485,1.4491,1.4496,0,0,0,0,0,1.4302,1.4334,1.4326,1.433,1.4352,1.4373,1.4376,1.4368,1.4351,1.4366,1.4365,1.4352,1.4395,1.4378,1.4383,1.4404,1.4448,1.4451,1.4454,1.4483,1.449,1.4496,0,0,0,0,0,0,1.4334,1.4334,1.4325,1.436,1.4366,1.4368,1.4387,1.4376,1.4388,1.4384,1.4374,1.4375,1.4405,1.4407,1.4389,1.4441,1.4418,1.4423,1.4439,1.4445,1.4451,1.4449,1.4363,0,0,0,0,0,1.4345,1.4361,1.4361,1.4392,1.4395,1.4391,1.44,1.4392,1.4399,1.4402,1.4403,1.4411,1.4425,1.4436,1.4449,1.4485,1.4486,1.4502,1.4508,1.4512,1.4516,1.4534,1.4541,1.4466,1.4466,1.4466,0,0,1.4368,1.437,1.4381,1.4398,1.4402,1.442,1.4393,1.4413,1.4426,1.4405,1.4431,1.4432,1.4439,1.4471,1.4485,1.4474,1.4536,1.4516,1.452,1.4521,1.4538,1.4545,1.4551,1.4468,1.4468,1.4468,0,0,1.4418,1.4422,1.4447,1.4451,1.4458,1.4454,1.446,1.4464,1.4463,1.4489,1.4473,1.4488,1.4514,1.4519,1.4526,1.4576,1.4563,1.4581,1.4609,1.4627,1.4632,1.4638,1.4654,1.4661,1.4585,1.4585,1.4585,0,1.4446,1.4471,1.4461,1.4481,1.4489,1.447,1.4494,1.4499,1.451,1.4516,1.4503,1.4534,1.4538,1.4569,1.4581,1.4587,1.4593,1.458,1.4632,1.4637,1.4642,1.4658,1.4665,1.4587,1.4586,1.4586,1.4586,0,1.4504,1.4522,1.4541,1.4551,1.456,1.4583,1.4576,1.4587,1.4578,1.4576,1.4601,1.4605,1.4618,1.4625,1.4618,1.4656,1.4648,1.4634,1.4611,1.4651,1.4666,1.4672,1.4589,1.4589,1.4588,1.4588,0,0,1.4576,1.4579,1.4586,1.4589,1.4594,1.4608,1.4629,1.4641,1.465,1.4658,1.4675,1.4697,1.4683,1.469,1.4683,1.4698,1.4736,1.4682,1.4682,1.4691,1.4776,1.4786,1.4794,1.4728,1.4729,1.473,1.4775,0,1.4625,1.4661,1.4652,1.4687,1.4703,1.4684,1.4702,1.4707,1.4705,1.4718,1.4715,1.4731,1.4712,1.4716,1.473,1.4728,1.4753,1.4725,1.4743,1.4744,1.4741,1.4802,1.4813,1.4856,1.4781,1.4782,1.4783,0,1.4688,1.4697,1.4734,1.4734,1.474,1.4757,1.4766,1.4779,1.4784,1.4781,1.4788,1.4777,1.4797,1.4774,1.4801,1.4782,1.4789,1.4789,1.479,1.4791,1.4765,1.4804,1.4869,1.4875,1.4792,1.4791,1.4791,0,1.4735,1.4757,1.4781,1.4784,1.4786,1.4798,1.4799,1.4802,1.481,1.4818,1.4823,1.4834,1.484,1.4848,1.4841,1.4825,1.4868,1.4845,1.4866,1.4866,1.4876,1.4876,1.4943,1.4882,1.4882,1.4881,1.4881,0,1.4791,1.4814,1.4802,1.4817,1.4841,1.483,1.4855,1.4854,1.4857,1.4871,1.4856,1.4869,1.4859,1.4871,1.4865,1.4888,1.4891,1.4889,1.4887,1.489,1.489,1.4894,1.489,1.4883,1.4883,1.4882,1.4882,0,1.4848,1.4841,1.4866,1.4865,1.4865,1.4883,1.4882,1.4896,1.4892,1.491,1.4913,1.4907,1.4921,1.4914,1.4929,1.4925,1.4953,1.4948,1.4952,1.495,1.4971,1.4969,1.5043,1.5052,1.4985,1.4986,1.4987,0,1.4884,1.4901,1.4901,1.4909,1.4911,1.4924,1.4931,1.492,1.4928,1.4933,1.4946,1.4958,1.4967,1.499,1.4987,1.4998,1.4992,1.5017,1.4993,1.4995,1.4991,1.499,1.4991,1.5022,1.5022,1.5023,1.5024,0,1.4947,1.4942,1.4953,1.4962,1.497,1.4977,1.4982,1.499,1.4979,1.4988,1.5002,1.5009,1.5023,1.5035,1.5043,1.5044,1.5032,1.5031,1.5036,1.5039,1.504,1.5039,1.4964,1.5029,1.5029,1.5028,1.5028,1.5028,1.4994,1.5008,1.5009,1.5021,1.5023,1.5028,1.504,1.5037,1.5048,1.5058,1.5051,1.5066,1.5069,1.5079,1.5082,1.5094,1.5084,1.5092,1.5093,1.5095,1.5098,1.5039,1.5096,1.5095,1.5095,1.5095,1.5095,0,1.5056,1.5055,1.5066,1.5073,1.5082,1.5069,1.5074,1.5082,1.5096,1.5099,1.5108,1.5122,1.5133,1.5131,1.5141,1.515,1.5145,1.5153,1.5152,1.5152,1.5107,1.5101,1.5157,1.5157,1.5157,1.5157,1.5157,1.5157,1.5089,1.511,1.5106,1.5128,1.5127,1.5142,1.5145,1.5149,1.5152,1.5168,1.5177,1.5175,1.5176,1.5185,1.5194,1.5193,1.5197,1.5208,1.5204,1.5162,1.5156,1.515,1.5144,1.5209,1.5209,1.5249,1.5249,1.5249]}]]